[[{"header":{"parameterUnit":"m.s-1","parameterCategory":1,"la1":30.2991,"la2":30.254,"lo1":-89.0895,"lo2":-89.0444,"dy":0.0017,"dx":0.0017,"nx":28,"ny":28,"refTime":"2026-02-15T03:00:00:Z","depth":0,"parameterNumber":2,"parameterNumberName":"U-component_of_WINDS"},"data":[0,0,0,0,0,0,0,0,0,0,0,0,0,0,0,0,0,0,0,0,0,0,0,0,0,0,0,0,0,0,0,0,0,0,0,0,0,0,0,0,0,0,0,0,0,0,0,0,0,0,0,0,0,0,0,0,0,0,6.9535,6.9534,0,6.9463,6.9463,6.9462,6.9384,6.9383,6.9381,6.938,6.9304,6.9304,6.9303,0,0,0,0,0,0,0,0,0,0,0,0,0,6.9602,6.9602,6.9535,6.9534,6.9533,6.9463,6.9462,6.9461,6.9384,6.9382,6.9381,6.938,6.9305,6.9304,6.9302,0,0,0,0,0,0,0,0,0,0,0,0,0,6.9556,6.9601,6.9535,6.9486,6.9481,6.9464,6.9462,6.9461,6.9384,6.9382,6.9381,6.9379,6.9305,6.9304,6.9302,6.9327,0,0,6.9298,6.9297,0,0,0,0,0,0,0,0,6.9559,6.9554,6.9494,6.9489,6.9483,6.9431,6.9458,6.9416,6.9385,6.9421,6.938,6.9378,6.9348,6.9343,6.9333,6.9323,6.932,6.9298,6.9297,6.9296,6.9296,0,0,0,0,0,0,0,6.9562,6.9556,6.9506,6.9493,6.9487,6.9467,6.9459,6.945,6.9394,6.9417,6.9412,6.9404,6.9344,6.9334,6.933,6.9319,6.9298,6.9296,6.9296,6.9295,6.9329,6.933,0,0,0,0,0,0,6.9573,6.956,6.9509,6.9504,6.9518,6.9467,6.9458,6.9449,6.9394,6.9384,6.9406,6.9401,6.9338,6.9332,6.9327,6.9354,6.9296,6.9295,6.9294,6.9327,6.9329,6.9331,0,0,0,0,0,0,6.9575,6.9569,6.9511,6.953,6.9521,6.9468,6.9459,6.9449,6.9439,6.9386,6.9375,6.9406,6.9336,6.933,6.9328,6.935,6.9294,6.9293,6.9325,6.9327,6.933,6.9407,0,0,0,0,0,0,6.9577,6.957,6.9579,6.9531,6.9521,6.9514,6.946,6.9449,6.9437,6.943,6.9383,6.9373,6.9334,6.9331,6.9327,6.9347,6.9292,6.9322,6.9326,6.9329,6.9402,6.9412,6.942,0,0,0,0,0,6.958,6.9603,6.958,6.9574,6.9531,6.9515,6.9509,6.9465,6.9439,6.9447,6.9414,6.9375,6.9349,6.9332,6.9326,6.9347,6.9321,6.9325,6.9329,6.9398,6.941,6.942,0,0,0,0,0,0,6.9653,6.9595,6.957,6.9577,6.9552,6.9502,6.9511,6.9478,6.9459,6.9453,6.9398,6.9388,6.9394,6.937,6.9351,6.9369,6.9329,6.9333,6.9384,6.9395,6.9404,6.9409,6.929,0,0,0,0,0,6.967,6.9663,6.9613,6.9625,6.9613,6.9565,6.9556,6.9525,6.9496,6.9484,6.945,6.9423,6.9409,6.94,6.9384,6.9399,6.9388,6.941,6.9419,6.9427,6.943,6.9438,6.9448,6.9344,6.9344,6.9344,0,0,6.9705,6.9673,6.9671,6.9639,6.9615,6.9609,6.9556,6.9551,6.9546,6.9483,6.948,6.9455,6.9421,6.9429,6.943,6.9409,6.9457,6.9432,6.9439,6.9437,6.9443,6.9453,6.9462,6.9347,6.9346,6.9346,0,0,6.9766,6.974,6.9749,6.9727,6.9693,6.9661,6.9664,6.9619,6.96,6.9597,6.9551,6.9544,6.952,6.9498,6.9484,6.9541,6.9505,6.9537,6.9584,6.9592,6.96,6.9607,6.9628,6.9637,6.954,6.9541,6.9541,0,6.9813,6.9803,6.9756,6.9756,6.9743,6.9688,6.9696,6.9677,6.9639,6.9632,6.9609,6.958,6.9553,6.9556,6.957,6.956,6.9561,6.9542,6.9603,6.961,6.9615,6.9635,6.9643,6.9545,6.9544,6.9544,6.9544,0,6.9863,6.9857,6.9868,6.9835,6.9824,6.9827,6.9782,6.9776,6.9746,6.9717,6.9715,6.9682,6.9659,6.9657,6.9627,6.9656,6.9644,6.9613,6.9573,6.963,6.9648,6.9655,6.9551,6.9549,6.9548,6.9547,0,0,6.9966,6.991,6.9915,6.99,6.986,6.9854,6.9856,6.9835,6.9832,6.9808,6.9809,6.9792,6.9763,6.9748,6.9715,6.9722,6.9771,6.969,6.9688,6.9707,6.9803,6.9827,6.9836,6.9747,6.9749,6.975,6.9806,0,7.002,7.0021,6.9981,6.9992,6.9987,6.9936,6.9937,6.9913,6.9887,6.9878,6.9848,6.9837,6.98,6.9791,6.9796,6.9764,6.9789,6.9759,6.9747,6.9747,6.9757,6.9845,6.9869,6.9924,6.9812,6.9813,6.9814,0,7.0083,7.0066,7.0077,7.0039,7.0035,7.0038,7.0017,7.0009,6.9981,6.9961,6.9946,6.9909,6.9908,6.9871,6.987,6.985,6.9843,6.9827,6.9828,6.9825,6.9784,6.9845,6.994,6.9949,6.9824,6.9824,6.9823,0,7.0158,7.0137,7.0142,7.0131,7.0086,7.009,7.0071,7.0042,7.0032,7.0014,7.0008,6.9989,6.9979,6.9966,6.9925,6.9902,6.993,6.9888,6.9913,6.9915,6.9921,6.9921,7.0017,6.9917,6.9916,6.9916,6.9916,0,7.0223,7.0232,7.0176,7.0179,7.0188,7.0143,7.0153,7.0129,7.0104,7.0102,7.0056,7.0055,7.0002,6.9995,6.9963,6.9968,6.9963,6.9948,6.9939,6.9952,6.9954,6.9946,6.9941,6.9918,6.9918,6.9918,6.9917,0,7.0308,7.027,7.0273,7.0231,7.0221,7.023,7.0194,7.0196,7.0167,7.0165,7.0162,7.0117,7.0107,7.0066,7.0045,7.0024,7.0039,7.0023,7.0049,7.0044,7.0071,7.007,7.0166,7.0176,7.007,7.0071,7.0072,0,7.0352,7.0358,7.0318,7.0314,7.0298,7.0292,7.0283,7.0239,7.0232,7.0202,7.0207,7.0194,7.018,7.0166,7.0132,7.0116,7.0099,7.0134,7.0096,7.0109,7.01,7.01,7.0101,7.0142,7.0143,7.0144,7.0145,0,7.0434,7.0416,7.0405,7.0389,7.0381,7.0365,7.0347,7.0347,7.0297,7.0292,7.0282,7.0272,7.0252,7.0239,7.0218,7.0199,7.0164,7.0158,7.0163,7.0175,7.0191,7.0183,7.0072,7.0155,7.0154,7.0153,7.0153,7.0152,7.0499,7.0504,7.0477,7.0468,7.045,7.0435,7.0435,7.0408,7.0399,7.038,7.0355,7.0348,7.0322,7.0291,7.0275,7.0269,7.0249,7.0256,7.0258,7.026,7.0267,7.0193,7.0265,7.0264,7.0264,7.0264,7.0263,0,7.058,7.0561,7.0553,7.053,7.0523,7.0493,7.0472,7.0468,7.0464,7.0443,7.0431,7.0421,7.0409,7.0375,7.036,7.0362,7.0346,7.0359,7.0358,7.0355,7.0285,7.0283,7.0373,7.0373,7.0373,7.0373,7.0373,7.0373,7.062,7.0626,7.0606,7.0603,7.0584,7.0578,7.0569,7.0555,7.0539,7.0529,7.052,7.0498,7.0472,7.0455,7.0443,7.0434,7.043,7.0449,7.0435,7.037,7.0359,7.0349,7.0347,7.0449,7.0449,7.0505,7.0505,7.0506]},{"header":{"parameterUnit":"m.s-1","parameterCategory":1,"la1":30.2991,"la2":30.254,"lo1":-89.0895,"lo2":-89.0444,"dy":0.0017,"dx":0.0017,"nx":28,"ny":28,"refTime":"2026-02-15T03:00:00:Z","depth":0,"parameterNumber":3,"parameterNumberName":"V-component_of_WINDS"},"data":[0,0,0,0,0,0,0,0,0,0,0,0,0,0,0,0,0,0,0,0,0,0,0,0,0,0,0,0,0,0,0,0,0,0,0,0,0,0,0,0,0,0,0,0,0,0,0,0,0,0,0,0,0,0,0,0,0,0,0.1251,0.1254,0,0.1525,0.1529,0.1532,0.1586,0.1584,0.1582,0.158,0.1869,0.1879,0.1888,0,0,0,0,0,0,0,0,0,0,0,0,0,0.0779,0.0788,0.1251,0.1254,0.1258,0.1525,0.1529,0.1532,0.1587,0.1584,0.1582,0.1579,0.1866,0.1878,0.1889,0,0,0,0,0,0,0,0,0,0,0,0,0,0.1012,0.079,0.125,0.1317,0.1325,0.1524,0.1529,0.1533,0.1587,0.1584,0.1581,0.1578,0.1862,0.1876,0.1891,0.2045,0,0,0.1935,0.1942,0,0,0,0,0,0,0,0,0.0999,0.1029,0.1304,0.1312,0.1323,0.1518,0.1469,0.1705,0.1588,0.1488,0.158,0.1576,0.1756,0.1779,0.1838,0.2059,0.2071,0.1937,0.1945,0.1952,0.1956,0,0,0,0,0,0,0,0.0983,0.1018,0.136,0.1307,0.1319,0.1335,0.1364,0.1514,0.1637,0.1497,0.1501,0.1533,0.176,0.1823,0.1845,0.2075,0.1936,0.1949,0.1958,0.1964,0.2434,0.2437,0,0,0,0,0,0,0.0954,0.1004,0.1351,0.1368,0.1149,0.1346,0.1379,0.1459,0.1635,0.1659,0.1535,0.1534,0.18,0.1828,0.1855,0.2045,0.1951,0.1965,0.1973,0.243,0.2435,0.2439,0,0,0,0,0,0,0.0943,0.0984,0.134,0.1187,0.1234,0.1357,0.1447,0.1466,0.1529,0.1664,0.1687,0.1576,0.1799,0.1835,0.1996,0.2056,0.1972,0.1985,0.2426,0.2431,0.2437,0.2428,0,0,0,0,0,0,0.093,0.098,0.1039,0.1188,0.1242,0.1475,0.145,0.1474,0.1553,0.1554,0.1709,0.1732,0.1799,0.1974,0.2011,0.2075,0.1996,0.2421,0.2428,0.2435,0.2423,0.2432,0.244,0,0,0,0,0,0.0913,0.1028,0.1041,0.1083,0.1317,0.1478,0.1509,0.1581,0.1558,0.1618,0.1705,0.1727,0.2043,0.199,0.2032,0.2101,0.2417,0.2426,0.2434,0.242,0.2431,0.244,0,0,0,0,0,0,0.0886,0.1049,0.1066,0.1232,0.134,0.1487,0.1566,0.1591,0.1711,0.1707,0.1795,0.1829,0.1985,0.206,0.1997,0.2258,0.2229,0.2246,0.2204,0.2216,0.2224,0.2203,0.2008,0,0,0,0,0,0.0899,0.1013,0.1151,0.1284,0.1337,0.1442,0.1515,0.1561,0.1678,0.1724,0.1823,0.1937,0.2062,0.2143,0.2266,0.2434,0.2468,0.2502,0.251,0.2517,0.2531,0.2623,0.2639,0.2466,0.2466,0.2466,0,0,0.0928,0.1031,0.1099,0.1281,0.1371,0.1489,0.148,0.1607,0.1695,0.1745,0.1902,0.1978,0.2111,0.2275,0.2353,0.2343,0.2586,0.2528,0.2531,0.2543,0.2633,0.2649,0.2664,0.2472,0.2471,0.247,0,0,0.1041,0.113,0.125,0.1339,0.1473,0.1541,0.1569,0.1712,0.1763,0.1921,0.196,0.2068,0.2282,0.2374,0.2449,0.2593,0.2618,0.2631,0.2676,0.2765,0.2778,0.2791,0.284,0.2858,0.2645,0.2645,0.2645,0,0.1061,0.1238,0.131,0.1433,0.1512,0.1558,0.168,0.1764,0.1932,0.1986,0.1971,0.2238,0.2332,0.2517,0.2551,0.2611,0.2647,0.2614,0.277,0.2783,0.2796,0.2845,0.2863,0.2645,0.2645,0.2645,0.2645,0,0.1255,0.1378,0.1459,0.1616,0.1704,0.1827,0.1917,0.1998,0.2036,0.2106,0.2266,0.2379,0.2524,0.2571,0.2611,0.2762,0.2751,0.2752,0.2725,0.2812,0.2859,0.2878,0.2646,0.2646,0.2646,0.2646,0,0,0.1361,0.1553,0.1582,0.1652,0.1802,0.1899,0.2023,0.2161,0.2228,0.2343,0.2449,0.2627,0.2627,0.2712,0.2763,0.2841,0.2945,0.2832,0.2837,0.2848,0.3117,0.3114,0.3135,0.2962,0.2966,0.2969,0.3105,0,0.1491,0.1711,0.1778,0.1963,0.2076,0.212,0.2229,0.2332,0.2401,0.2508,0.2585,0.2708,0.27,0.2752,0.2831,0.2915,0.3,0.2907,0.3062,0.3067,0.3026,0.316,0.3159,0.3282,0.3124,0.3127,0.313,0,0.1673,0.1785,0.198,0.2112,0.2163,0.2258,0.2389,0.2491,0.261,0.2654,0.2746,0.2789,0.2921,0.2885,0.3068,0.3003,0.3071,0.3122,0.3128,0.3145,0.3103,0.3179,0.3323,0.334,0.316,0.3157,0.3155,0,0.1728,0.1929,0.2071,0.213,0.2289,0.2354,0.2424,0.2539,0.2617,0.2732,0.2784,0.2914,0.2985,0.3085,0.3162,0.3129,0.3338,0.3309,0.3378,0.3376,0.342,0.3417,0.3575,0.3465,0.3465,0.3464,0.3464,0,0.1865,0.1983,0.2097,0.2185,0.2317,0.2393,0.2523,0.2595,0.2696,0.2799,0.2847,0.2943,0.3039,0.3148,0.3209,0.335,0.3383,0.3422,0.3437,0.3417,0.3412,0.3463,0.3456,0.3469,0.3468,0.3467,0.3466,0,0.195,0.2031,0.2188,0.2324,0.2361,0.2452,0.2569,0.2656,0.2724,0.2854,0.2889,0.2998,0.3128,0.3214,0.3382,0.3423,0.3576,0.3589,0.3534,0.3541,0.3605,0.3597,0.3802,0.3832,0.3701,0.3703,0.3704,0,0.2031,0.2122,0.2266,0.2336,0.2405,0.2519,0.2598,0.2676,0.2756,0.2896,0.2966,0.3098,0.3208,0.3414,0.351,0.3637,0.3654,0.3716,0.3674,0.365,0.3653,0.3646,0.3655,0.3723,0.3724,0.3725,0.3726,0,0.2168,0.2202,0.2313,0.2436,0.2528,0.263,0.2733,0.2788,0.2884,0.2972,0.3104,0.3189,0.3357,0.3488,0.3624,0.3698,0.3728,0.3738,0.376,0.3741,0.3705,0.3724,0.3552,0.3733,0.3732,0.3732,0.3731,0.3731,0.2253,0.2334,0.2447,0.2568,0.2652,0.2746,0.2833,0.2911,0.3021,0.3162,0.3202,0.3339,0.3454,0.3639,0.3714,0.3823,0.3817,0.385,0.3858,0.3865,0.3864,0.3687,0.3849,0.3848,0.3848,0.3848,0.3848,0,0.239,0.2463,0.2574,0.2713,0.2808,0.2825,0.2938,0.3017,0.3136,0.3239,0.3345,0.3495,0.3622,0.3725,0.3855,0.3923,0.394,0.3954,0.395,0.3966,0.3863,0.383,0.3938,0.3938,0.3938,0.3938,0.3938,0.3938,0.2472,0.261,0.2658,0.2838,0.2912,0.3044,0.3107,0.3194,0.3276,0.3441,0.3544,0.361,0.3713,0.3851,0.3967,0.3995,0.404,0.4051,0.4081,0.3984,0.3973,0.3964,0.3933,0.4061,0.4061,0.4175,0.4176,0.4177]}]]